This is the latest recevied weather packets stored in our database for station/object K5NOC-12. If no packets are shown the sender has not sent any weather packets the latest 1 day(s).
| Time | Temp. | Humidity | Pressure | Rain* | Wind** | Luminosity | Snow |
|---|---|---|---|---|---|---|---|
| 1778056949 | 7.22° C | 76% | 1014.5 hPa | 0 mm | - | - | - |
| 1778054248 | 6.67° C | 76% | 1013.8 hPa | 0 mm | - | - | - |
| 1778053348 | 6.67° C | 76% | 1013.3 hPa | 0 mm | - | - | - |
| 1778052448 | 6.67° C | 76% | 1013.2 hPa | 0 mm | - | - | - |
| 1778051548 | 6.67° C | 75% | 1013.8 hPa | 0 mm | - | - | - |
| 1778049747 | 6.67° C | 75% | 1014.2 hPa | 0 mm | - | - | - |
| 1778047947 | 7.22° C | 74% | 1013.9 hPa | 0 mm | - | - | - |
| 1778045246 | 7.22° C | 72% | 1013.3 hPa | 0 mm | - | - | - |
| 1778044346 | 7.78° C | 71% | 1013.2 hPa | 0 mm | - | - | - |
| 1778043446 | 7.78° C | 70% | 1013 hPa | 0 mm | - | - | - |
| 1778042546 | 7.78° C | 68% | 1012.7 hPa | 0 mm | - | - | - |
| 1778039845 | 9.44° C | 62% | 1012.6 hPa | 0 mm | - | - | - |
| 1778038945 | 10° C | 60% | 1012.2 hPa | 0 mm | - | - | - |
| 1778038045 | 10° C | 60% | 1012.1 hPa | 0 mm | - | - | - |
| 1778037145 | 10.56° C | 58% | 1012.1 hPa | 0 mm | - | - | - |
| 1778036244 | 11.11° C | 55% | 1011.8 hPa | 0 mm | - | - | - |
| 1778034444 | 11.67° C | 52% | 1011.5 hPa | 0 mm | - | - | - |
| 1778033544 | 12.22° C | 52% | 1010.9 hPa | 0 mm | - | - | - |
| 1778032644 | 12.78° C | 52% | 1011.1 hPa | 0 mm | - | - | - |
| 1778031744 | 13.33° C | 49% | 1011.2 hPa | 0 mm | - | - | - |
| 1778029943 | 14.44° C | 47% | 1010.3 hPa | 0 mm | - | - | - |
| 1778029043 | 14.44° C | 46% | 1010 hPa | 0 mm | - | - | - |
| 1778028143 | 15° C | 45% | 1009.9 hPa | 0 mm | - | - | - |
| 1778027243 | 15° C | 45% | 1009.6 hPa | 0 mm | - | - | - |
* Rain latest hour (hover to see other rain measurements)
** Current wind speed in m/s (hover to see current wind gust speed)